TimeEST,TemperatureF,Dew PointF,Humidity,Sea Level PressureIn,VisibilityMPH,Wind Direction,Wind SpeedMPH,Gust SpeedMPH,PrecipitationIn,Events,Conditions,WindDirDegrees,DateUTC
12:51 AM,34.0,23.0,64,30.09,10.0,SSE,3.5,-,N/A,,Clear,150,2012-11-06 05:51:00
1:51 AM,33.1,21.9,64,30.08,10.0,Calm,Calm,-,N/A,,Clear,0,2012-11-06 06:51:00
2:51 AM,35.1,24.1,64,30.07,10.0,SE,10.4,18.4,N/A,,Clear,140,2012-11-06 07:51:00
3:51 AM,34.0,24.1,67,30.06,10.0,SE,10.4,-,N/A,,Clear,130,2012-11-06 08:51:00
4:51 AM,33.1,24.1,70,30.06,10.0,SE,8.1,-,N/A,,Clear,130,2012-11-06 09:51:00
5:51 AM,33.1,23.0,66,30.07,10.0,ESE,5.8,-,N/A,,Clear,110,2012-11-06 10:51:00
6:51 AM,32.0,23.0,69,30.08,10.0,ESE,5.8,-,N/A,,Clear,120,2012-11-06 11:51:00
7:51 AM,33.1,24.1,70,30.09,10.0,SE,8.1,16.1,N/A,,Clear,130,2012-11-06 12:51:00
8:51 AM,35.1,24.1,64,30.11,10.0,SSE,12.7,23.0,N/A,,Clear,150,2012-11-06 13:51:00
9:51 AM,37.0,25.0,62,30.09,10.0,SE,8.1,-,N/A,,Clear,130,2012-11-06 14:51:00
10:51 AM,39.0,27.0,62,30.09,10.0,SSE,12.7,17.3,N/A,,Clear,150,2012-11-06 15:51:00
11:51 AM,41.0,27.0,57,30.07,10.0,SSE,8.1,-,N/A,,Clear,150,2012-11-06 16:51:00
12:51 PM,42.1,27.0,55,30.03,10.0,SSE,8.1,-,N/A,,Clear,160,2012-11-06 17:51:00
1:51 PM,43.0,27.0,53,30.01,10.0,SSE,8.1,-,N/A,,Clear,160,2012-11-06 18:51:00
2:51 PM,43.0,28.0,56,29.99,10.0,ESE,6.9,-,N/A,,Clear,120,2012-11-06 19:51:00
3:51 PM,42.1,28.0,58,29.98,10.0,ESE,10.4,-,N/A,,Clear,120,2012-11-06 20:51:00
4:51 PM,39.0,26.1,60,29.99,10.0,ESE,6.9,-,N/A,,Clear,120,2012-11-06 21:51:00
5:51 PM,37.9,26.1,62,29.99,10.0,SE,5.8,-,N/A,,Mostly Cloudy,130,2012-11-06 22:51:00
6:51 PM,37.0,26.1,65,30.01,10.0,SE,6.9,-,N/A,,Mostly Cloudy,130,2012-11-06 23:51:00
7:51 PM,36.0,26.1,67,29.99,10.0,SE,5.8,-,N/A,,Clear,130,2012-11-07 00:51:00
8:51 PM,35.1,26.1,70,29.99,10.0,Variable,3.5,-,N/A,,Mostly Cloudy,0,2012-11-07 01:51:00
9:51 PM,34.0,26.1,73,29.98,10.0,SE,4.6,-,N/A,,Clear,130,2012-11-07 02:51:00
10:51 PM,34.0,26.1,73,29.96,10.0,SE,4.6,-,N/A,,Clear,140,2012-11-07 03:51:00
11:51 PM,33.1,26.1,75,29.95,10.0,SE,5.8,-,N/A,,Clear,140,2012-11-07 04:51:00